Location: Gradaro
(45.0833°N, 10.8833°E)
Time: 00:18:55
(UTC+00:00)

Cosmos 2263 Rocket - Pass Details

Date: 22 April 2021
Orbit: 824 x 848 km, 71.0° (Epoch: 15 May)

Event Time Altitude Azimuth Distance (km) Brightness Sun altitude
Exits shadow 22:16:17 48° 290° (WNW) 1,066 2.8 -30.9°
Maximum altitude 22:16:37 49° 302° (WNW) 1,057 2.8 -30.9°
Drops below altitude 10° 22:22:02 10° 17° (NNE) 2,437 5.2 -31.2°
Sets 22:24:34 0° 23° (NNE) 3,376 6.0 -31.3°
